星链-32333 (STARLINK-32333)

导读

STARLINK-32333是美国太空探索技术公司SpaceX于2024年10月23日发射的星链卫星,属于Starlink第二代星座组网卫星。星链项目旨在构建全球卫星互联网星座,为全球用户提供高速低延迟的宽带服务,该卫星入轨后将为提升星座覆盖与服务能力提供支撑。

Basic Information
目录编号:
61626
目录名称:
STARLINK-32333
国际标识:
2024-191F
轨道中心:
EARTH
卫星名称:
星链-32333
卫星全名:
星链-32333 (STARLINK-32333)
卫星状态:
在轨 (已飞行603 天)
发射日期:
2024-10-23 UTC
国别 :
美国 (US)
星等 :
--
Orbit Information
数据来源 国际轨道数据 AOE轨道数据
星历时间 2026-06-17T11:19:59+0800
21小时前
查看轨道信息
2026-06-16T02:00:00+0800
2天前
查看轨道信息
半长轴 6861.214km 6861.162km
偏心率 0.0001592 0.0001865
轨道倾角 43.005° 43.008°
近地点辐角 275.500° 276.454°
升交点赤经 316.527° 324.377°
平近点角 84.567° 356.920°
近地点 481.984km 481.745km
远地点 484.17km 484.305km
周期 94.267分钟 94.266分钟
每日圈数 15.27571 15.275882
Detailed Information
固有亮度:
5
最大亮度:
2.5
卫星平台:
Starlink V1.0
覆盖范围:
全球
运营商:
太空探索技术公司
运营商所在国:
美国
制造商(研发单位):
太空探索技术公司
制造商所在国:
美国
使用方式:
暂无
Satellite Introduction
Starlink 计划是 SpaceX 推出的全球卫星互联网项目,通过发射低轨道卫星,为全球尤其是偏远地区提供高速、低延迟的互联网服务。自 2019 年起,Starlink 已部署数千颗卫星,旨在缩小全球数字鸿沟,推动互联网普及。该项目还为军事、航空等行业提供通信支持,带来广泛经济效益。
2D Orbit Map
3D Orbit Map
Orbit Altitude Analysis Chart
Orbit Inclination Analysis Chart
Orbit Comprehensive Analysis Chart
View Comprehensive Chart